Sacramento, CA

3:28 AM PDT on March 30, 2017 (GMT -0700)
Sacramento Executive

Weather History for KSAC - March, 2013

Change the Weather History Date:

Saturday, March 9, 2013

  Actual Average Record
Temperature  
Mean Temperature 55 °F -  
Max Temperature 70 °F 64 °F 77 °F (1944)
Min Temperature 39 °F 44 °F 34 °F (2010)
Degree Days  
Heating Degree Days 10    
Cooling Degree Days 0    
Growing Degree Days 4 (Base 50)    
Moisture  
Dew Point 34 °F    
Average Humidity 56    
Maximum Humidity 92    
Minimum Humidity 20    
Precipitation  
Precipitation 0.00 in 0.10 in 1.20 in (1995)
Month to date precipitation 0.23 0.98  
Year to date precipitation 1.55 8.09  
Since 1 July precipitation 12.84  
Sea Level Pressure  
Sea Level Pressure 30.21 in    
Wind  
Wind Speed 6 mph (NNW)    
Max Wind Speed 22 mph    
Max Gust Speed 26 mph    
Visibility 10 miles    
Events      
T = Trace of Precipitation, MM = Missing Value Source: NWS Daily Summary

Daily Weather History Graph

Daily Weather History Graph

Search for Another Location

Airport or City:

Trip Planner

Search our weather history database for the weather conditions in past years. The results will help you decide how hot, cold, wet, or windy it might be!

Date:

Astronomy

Mar. 09, 2013 Rise Set
Actual Time 6:25 AM PST 6:07 PM PST
Civil Twilight 5:59 AM PST 6:33 PM PST
Nautical Twilight 5:28 AM PST 7:04 PM PST
Astronomical Twilight 4:57 AM PST 7:35 PM PST
Moon 4:51 AM PST (3/9) 4:16 PM PST (3/9)
Length of Visible Light 12h 34m
Length of Day
11h 41m
Waning Crescent, 5% of the Moon is Illuminated
Mar 9
Waning Crescent
Mar 11
New
Mar 19
First Quarter
Mar 27
Full
Apr 2
Last Quarter

Hourly Weather History & Observations

Time (PST) Temp. Windchill Dew Point Humidity Pressure Visibility Wind Dir Wind Speed Gust Speed Precip Events Conditions
12:53 AM 45.0 °F 43.5 °F 39.0 °F 80% 30.05 in 10.0 mi SSE 3.5 mph - N/A   Clear
1:53 AM 44.1 °F 41.5 °F 37.9 °F 79% 30.08 in 10.0 mi ESE 4.6 mph - N/A   Clear
2:53 AM 44.1 °F 42.5 °F 39.0 °F 82% 30.09 in 10.0 mi East 3.5 mph - N/A   Clear
3:53 AM 41.0 °F 38.0 °F 37.0 °F 86% 30.12 in 10.0 mi NE 4.6 mph - N/A   Clear
4:53 AM 42.1 °F - 37.9 °F 85% 30.15 in 10.0 mi Calm Calm - N/A   Clear
5:53 AM 39.0 °F - 36.0 °F 89% 30.17 in 10.0 mi Calm Calm - N/A   Clear
6:53 AM 39.9 °F - 37.0 °F 89% 30.20 in 8.0 mi Calm Calm - N/A   Clear
7:53 AM 45.0 °F 42.6 °F 39.9 °F 82% 30.23 in 10.0 mi NW 4.6 mph - N/A   Clear
8:53 AM 50.0 °F - 42.1 °F 74% 30.25 in 10.0 mi NNW 5.8 mph - N/A   Clear
9:53 AM 54.0 °F - 42.1 °F 64% 30.26 in 10.0 mi North 9.2 mph - N/A   Clear
10:53 AM 57.9 °F - 43.0 °F 58% 30.26 in 10.0 mi NNW 13.8 mph - N/A   Clear
11:53 AM 62.1 °F - 42.1 °F 48% 30.26 in 10.0 mi NNW 13.8 mph 23.0 mph N/A   Clear
12:53 PM 66.9 °F - 37.0 °F 33% 30.25 in 10.0 mi NW 16.1 mph 20.7 mph N/A   Clear
1:53 PM 68.0 °F - 30.9 °F 25% 30.23 in 10.0 mi North 17.3 mph 26.5 mph N/A   Clear
2:53 PM 69.1 °F - 26.1 °F 20% 30.23 in 10.0 mi NNW 17.3 mph 24.2 mph N/A   Clear
3:53 PM 69.1 °F - 27.0 °F 21% 30.22 in 10.0 mi NW 13.8 mph 19.6 mph N/A   Clear
4:53 PM 68.0 °F - 27.0 °F 21% 30.22 in 10.0 mi NW 12.7 mph 20.7 mph N/A   Clear
5:53 PM 64.9 °F - 28.0 °F 25% 30.24 in 10.0 mi NW 9.2 mph - N/A   Clear
6:53 PM 60.1 °F - 28.0 °F 30% 30.25 in 10.0 mi NNW 6.9 mph - N/A   Clear
7:53 PM 57.9 °F - 28.9 °F 33% 30.26 in 10.0 mi NNW 8.1 mph - N/A   Clear
8:53 PM 57.0 °F - 28.9 °F 34% 30.26 in 10.0 mi NW 5.8 mph - N/A   Clear
9:53 PM 55.0 °F - 30.0 °F 38% 30.27 in 10.0 mi NNW 5.8 mph - N/A   Clear
10:53 PM 52.0 °F - 32.0 °F 47% 30.27 in 10.0 mi NW 5.8 mph - N/A   Clear
11:53 PM 51.1 °F - 30.9 °F 46% 30.27 in 10.0 mi NNW 3.5 mph - N/A   Clear